Location: N�rnberg
(49.4489°N, 11.0797°E)
Time: 13:28:34
(UTC+01:00)

ISS - Pass Details

Date: 07 January 2018
Orbit: 402 x 407 km, 51.6° (Epoch: 22 January)

Event Time Altitude Azimuth Distance (km) Brightness Sun altitude
Exits shadow 05:56:04 51° 33° (NNE) 522 -3.2 -20.9°
Drops below altitude 10° 05:58:55 10° 80° (E) 1,470 0.0 -20.4°
Sets 06:01:02 0° 85° (E) 2,332 1.4 -20.1°
